OPS 7218 (TRANSIT 16) 1 02807U 67048A 26257.70789663 .00000091 00000+0 12521-3 0 9993 2 02807 89.6784 344.9554 0021257 42.8546 120.5861 13.50779714920010 OPS 4947 (TRANSIT 17) 1 02965U 67092A 26257.25798904 .00000100 00000+0 12997-3 0 9993 2 02965 89.2621 3.5766 0048783 153.8469 235.0955 13.53512181908247 OPS 7034 (TRANSIT 18) 1 03133U 68012A 26257.02013499 .00000081 00000+0 10681-3 0 9994 2 03133 90.0211 274.3428 0075881 93.0685 296.4700 13.51623535606379 NNSS 19 (TRANSIT 19) 1 04507U 70067A 26257.36651808 .00000072 00000+0 88460-4 0 9993 2 04507 90.0177 234.8796 0170346 213.6531 145.3712 13.51377928759441 NNSS 20 (TRANSIT 20) 1 06909U 73081A 26257.68481602 .00000132 00000+0 12521-3 0 9999 2 06909 89.8593 250.9609 0153404 331.4350 27.8468 13.71532218841433 TRANSAT 1 10457U 77106A 26257.96068478 .00000045 00000+0 54278-4 0 9996 2 10457 89.6428 68.7097 0027225 115.0050 49.5353 13.48980816404671 NOVA 1 1 12458U 81044A 26257.96745507 .00000050 00000+0 96024-4 0 9991 2 12458 89.8384 87.2862 0016026 65.4834 101.2794 13.23309409188397 NOVA 3 1 15362U 84110A 26257.96676372 .00000056 00000+0 11481-3 0 9997 2 15362 90.1113 83.6424 0029804 289.3500 237.0021 13.23076678 23509 OSCAR 30 1 15935U 85066A 26257.84790400 .00000052 00000+0 76776-4 0 9995 2 15935 90.1461 104.1094 0168729 25.2010 359.7521 13.36123336 1327 OSCAR 24 1 15936U 85066B 26257.56029913 .00000042 00000+0 59096-4 0 9994 2 15936 90.1623 96.9630 0169948 32.5783 343.2274 13.35978608 3272 POLAR BEAR 1 17070U 86088A 26257.23748125 .00000088 00000+0 80107-4 0 9994 2 17070 89.6257 172.8588 0039972 12.4248 150.1120 13.75300918997657 OSCAR 27 1 18361U 87080A 26257.48456727 .00000072 00000+0 10355-3 0 9992 2 18361 90.3618 89.4310 0104527 153.7999 206.8491 13.44953919912634 OSCAR 29 1 18362U 87080B 26257.50553954 .00000056 00000+0 78424-4 0 9990 2 18362 90.3626 89.9099 0105289 177.3663 199.8688 13.44489504912159 OSCAR 23 1 19070U 88033A 26257.94290010 .00000056 00000+0 92647-4 0 9998 2 19070 90.3357 25.1432 0190897 131.9193 351.3396 13.27828078859181 OSCAR 32 1 19071U 88033B 26257.63679274 .00000031 00000+0 42780-4 0 9994 2 19071 90.3361 25.2799 0189493 119.5156 254.1709 13.27989085859279 NOVA 2 1 19223U 88052A 26257.50754546 .00000016 00000+0 17915-4 0 9991 2 19223 89.9784 77.8087 0029702 336.8410 38.4254 13.22964241845946 OSCAR 25 1 19419U 88074A 26257.32728641 .00000075 00000+0 11303-3 0 9998 2 19419 90.0488 21.3262 0096383 178.9087 209.6451 13.42669720863385 OSCAR 31 1 19420U 88074B 26257.28574696 .00000063 00000+0 92008-4 0 9993 2 19420 90.0504 21.7211 0094749 173.3113 214.0451 13.42621267863482